Time,TemperatureF,DewpointF,PressureIn,WindDirection,WindDirectionDegrees,WindSpeedMPH,WindSpeedGustMPH,Humidity,HourlyPrecipIn,Conditions,Clouds,dailyrainin,SoftwareType,DateUTC
2013-02-13 00:14:00,17.7,14.0,29.83,WSW,245,0.0,-999.0,84,-99.99,,,0.00,weatherlink.com 1.10,2013-02-13 06:14:00,
2013-02-13 00:28:00,17.3,13.0,29.83,WSW,244,0.0,-999.0,84,-99.99,,,0.00,weatherlink.com 1.10,2013-02-13 06:28:00,
2013-02-13 00:42:00,17.1,13.0,29.83,WSW,244,1.0,-999.0,84,-99.99,,,0.00,weatherlink.com 1.10,2013-02-13 06:42:00,
2013-02-13 00:57:00,17.0,13.0,29.83,WSW,244,0.0,-999.0,85,-99.99,,,0.00,weatherlink.com 1.10,2013-02-13 06:57:00,
2013-02-13 01:11:00,16.9,13.0,29.82,WSW,244,1.0,-999.0,85,-99.99,,,0.00,weatherlink.com 1.10,2013-02-13 07:11:00,
2013-02-13 01:25:00,17.0,14.0,29.82,WSW,245,0.0,-999.0,86,-99.99,,,0.00,weatherlink.com 1.10,2013-02-13 07:25:00,
2013-02-13 01:40:00,17.0,14.0,29.82,WSW,245,0.0,-999.0,86,-99.99,,,0.00,weatherlink.com 1.10,2013-02-13 07:40:00,
2013-02-13 01:54:00,17.2,14.0,29.82,WSW,245,0.0,-999.0,86,-99.99,,,0.00,weatherlink.com 1.10,2013-02-13 07:54:00,
2013-02-13 02:08:00,17.6,14.0,29.81,WSW,245,0.0,-999.0,86,-99.99,,,0.00,weatherlink.com 1.10,2013-02-13 08:08:00,
2013-02-13 02:22:00,17.9,15.0,29.81,WSW,244,0.0,-999.0,87,-99.99,,,0.00,weatherlink.com 1.10,2013-02-13 08:22:00,
2013-02-13 02:36:00,18.1,15.0,29.81,WSW,245,1.0,-999.0,87,-99.99,,,0.00,weatherlink.com 1.10,2013-02-13 08:36:00,
2013-02-13 02:51:00,18.3,15.0,29.81,WSW,245,0.0,-999.0,87,-99.99,,,0.00,weatherlink.com 1.10,2013-02-13 08:51:00,
2013-02-13 03:05:00,18.4,15.0,29.81,WSW,245,0.0,-999.0,87,-99.99,,,0.00,weatherlink.com 1.10,2013-02-13 09:05:00,
2013-02-13 03:19:00,18.4,15.0,29.81,WSW,244,0.0,-999.0,87,-99.99,,,0.00,weatherlink.com 1.10,2013-02-13 09:19:00,
2013-02-13 03:34:00,18.3,15.0,29.81,WSW,245,0.0,-999.0,86,-99.99,,,0.00,weatherlink.com 1.10,2013-02-13 09:34:00,
2013-02-13 03:48:00,18.1,15.0,29.80,SSW,200,0.0,-999.0,86,-99.99,,,0.00,weatherlink.com 1.10,2013-02-13 09:48:00,
2013-02-13 04:02:00,17.6,14.0,29.79,SSW,200,0.0,-999.0,86,-99.99,,,0.00,weatherlink.com 1.10,2013-02-13 10:02:00,
2013-02-13 04:16:00,17.2,13.0,29.80,SSW,204,0.0,-999.0,85,-99.99,,,0.00,weatherlink.com 1.10,2013-02-13 10:16:00,
2013-02-13 04:31:00,16.7,13.0,29.80,SSW,204,1.0,-999.0,85,-99.99,,,0.00,weatherlink.com 1.10,2013-02-13 10:31:00,
2013-02-13 04:45:00,16.4,13.0,29.80,SSW,204,0.0,-999.0,85,-99.99,,,0.00,weatherlink.com 1.10,2013-02-13 10:45:00,
2013-02-13 04:59:00,16.4,13.0,29.79,SSW,204,1.0,-999.0,86,-99.99,,,0.00,weatherlink.com 1.10,2013-02-13 10:59:00,
2013-02-13 05:13:00,16.4,13.0,29.80,SSW,204,0.0,-999.0,86,-99.99,,,0.00,weatherlink.com 1.10,2013-02-13 11:13:00,
2013-02-13 05:28:00,16.1,13.0,29.80,SSW,204,0.0,-999.0,86,-99.99,,,0.00,weatherlink.com 1.10,2013-02-13 11:28:00,
2013-02-13 05:42:00,16.0,13.0,29.79,SSW,204,0.0,-999.0,86,-99.99,,,0.00,weatherlink.com 1.10,2013-02-13 11:42:00,
2013-02-13 05:56:00,16.2,13.0,29.78,SSW,204,0.0,-999.0,86,-99.99,,,0.00,weatherlink.com 1.10,2013-02-13 11:56:00,
2013-02-13 06:11:00,16.7,14.0,29.77,SSW,203,0.0,-999.0,87,-99.99,,,0.00,weatherlink.com 1.10,2013-02-13 12:11:00,
2013-02-13 06:25:00,17.5,14.0,29.77,South,183,0.0,-999.0,87,-99.99,,,0.00,weatherlink.com 1.10,2013-02-13 12:25:00,
2013-02-13 06:40:00,18.0,15.0,29.77,SSW,198,1.0,-999.0,87,-99.99,,,0.00,weatherlink.com 1.10,2013-02-13 12:40:00,
2013-02-13 06:54:00,18.2,15.0,29.77,SSW,199,0.0,-999.0,87,-99.99,,,0.00,weatherlink.com 1.10,2013-02-13 12:54:00,
2013-02-13 07:08:00,18.5,15.0,29.77,SSW,199,0.0,-999.0,87,-99.99,,,0.00,weatherlink.com 1.10,2013-02-13 13:08:00,
2013-02-13 07:22:00,18.6,15.0,29.77,SSW,199,0.0,-999.0,87,-99.99,,,0.00,weatherlink.com 1.10,2013-02-13 13:22:00,
2013-02-13 07:37:00,19.0,16.0,29.77,SSW,199,1.0,-999.0,87,-99.99,,,0.00,weatherlink.com 1.10,2013-02-13 13:37:00,
2013-02-13 07:51:00,19.7,16.0,29.76,SSW,199,2.0,-999.0,87,-99.99,,,0.00,weatherlink.com 1.10,2013-02-13 13:51:00,
2013-02-13 08:05:00,20.2,17.0,29.76,South,186,1.0,-999.0,87,-99.99,,,0.00,weatherlink.com 1.10,2013-02-13 14:05:00,
2013-02-13 08:20:00,21.0,18.0,29.76,South,188,2.0,-999.0,87,-99.99,,,0.00,weatherlink.com 1.10,2013-02-13 14:20:00,
2013-02-13 08:34:00,21.6,18.0,29.76,SSW,193,4.0,-999.0,87,-99.99,,,0.00,weatherlink.com 1.10,2013-02-13 14:34:00,
2013-02-13 08:48:00,22.2,19.0,29.76,SSW,193,2.0,-999.0,86,-99.99,,,0.00,weatherlink.com 1.10,2013-02-13 14:48:00,
2013-02-13 09:02:00,22.5,19.0,29.76,South,177,3.0,-999.0,85,-99.99,,,0.00,weatherlink.com 1.10,2013-02-13 15:02:00,
2013-02-13 09:17:00,23.2,19.0,29.75,South,179,3.0,-999.0,83,-99.99,,,0.00,weatherlink.com 1.10,2013-02-13 15:17:00,
2013-02-13 09:31:00,24.3,20.0,29.75,South,191,3.0,-999.0,82,-99.99,,,0.00,weatherlink.com 1.10,2013-02-13 15:31:00,
2013-02-13 09:45:00,25.1,20.0,29.75,SW,221,3.0,-999.0,81,-99.99,,,0.00,weatherlink.com 1.10,2013-02-13 15:45:00,
2013-02-13 10:00:00,26.0,21.0,29.74,SSW,199,4.0,-999.0,81,-99.99,,,0.00,weatherlink.com 1.10,2013-02-13 16:00:00,
2013-02-13 10:14:00,27.2,22.0,29.76,WNW,294,4.0,-999.0,80,-99.99,,,0.00,weatherlink.com 1.10,2013-02-13 16:14:00,
2013-02-13 10:28:00,27.8,22.0,29.75,South,177,3.0,-999.0,79,-99.99,,,0.00,weatherlink.com 1.10,2013-02-13 16:28:00,
2013-02-13 10:43:00,29.6,23.0,29.74,South,175,3.0,-999.0,76,-99.99,,,0.00,weatherlink.com 1.10,2013-02-13 16:43:00,
2013-02-13 10:57:00,30.1,24.0,29.74,SW,216,2.0,-999.0,77,-99.99,,,0.00,weatherlink.com 1.10,2013-02-13 16:57:00,
2013-02-13 11:11:00,30.0,24.0,29.74,SW,226,4.0,-999.0,77,-99.99,,,0.00,weatherlink.com 1.10,2013-02-13 17:11:00,
2013-02-13 11:26:00,30.8,24.0,29.74,SSW,199,4.0,-999.0,77,-99.99,,,0.00,weatherlink.com 1.10,2013-02-13 17:26:00,
2013-02-13 11:40:00,31.9,25.0,29.73,SSW,194,2.0,-999.0,75,-99.99,,,0.00,weatherlink.com 1.10,2013-02-13 17:40:00,
2013-02-13 11:54:00,32.5,25.0,29.72,South,188,1.0,-999.0,74,-99.99,,,0.00,weatherlink.com 1.10,2013-02-13 17:54:00,
2013-02-13 12:09:00,33.5,26.0,29.71,South,185,2.0,-999.0,73,-99.99,,,0.00,weatherlink.com 1.10,2013-02-13 18:09:00,
2013-02-13 12:23:00,34.3,26.0,29.70,SSE,164,1.0,-999.0,71,-99.99,,,0.00,weatherlink.com 1.10,2013-02-13 18:23:00,
2013-02-13 12:38:00,35.2,27.0,29.69,South,176,3.0,-999.0,71,-99.99,,,0.00,weatherlink.com 1.10,2013-02-13 18:38:00,
2013-02-13 12:52:00,35.2,27.0,29.69,SSW,200,5.0,-999.0,71,-99.99,,,0.00,weatherlink.com 1.10,2013-02-13 18:52:00,
2013-02-13 13:06:00,35.1,27.0,29.69,SSE,164,4.0,-999.0,71,-99.99,,,0.00,weatherlink.com 1.10,2013-02-13 19:06:00,
2013-02-13 13:21:00,35.6,27.0,29.68,SSE,156,2.0,-999.0,70,-99.99,,,0.00,weatherlink.com 1.10,2013-02-13 19:21:00,
2013-02-13 13:35:00,36.3,27.0,29.68,South,185,4.0,-999.0,70,-99.99,,,0.01,weatherlink.com 1.10,2013-02-13 19:35:00,
2013-02-13 13:49:00,35.7,27.0,29.67,South,175,4.0,-999.0,71,-99.99,,,0.01,weatherlink.com 1.10,2013-02-13 19:49:00,
2013-02-13 14:04:00,35.8,28.0,29.67,SW,226,4.0,-999.0,72,-99.99,,,0.02,weatherlink.com 1.10,2013-02-13 20:04:00,
2013-02-13 14:18:00,35.4,27.0,29.66,SSE,162,5.0,-999.0,72,-99.99,,,0.02,weatherlink.com 1.10,2013-02-13 20:18:00,
2013-02-13 14:32:00,35.7,28.0,29.66,South,187,4.0,-999.0,72,-99.99,,,0.03,weatherlink.com 1.10,2013-02-13 20:32:00,
2013-02-13 14:47:00,36.1,28.0,29.66,South,187,2.0,-999.0,72,-99.99,,,0.03,weatherlink.com 1.10,2013-02-13 20:47:00,
2013-02-13 15:01:00,36.2,28.0,29.66,South,177,4.0,-999.0,73,-99.99,,,0.03,weatherlink.com 1.10,2013-02-13 21:01:00,
2013-02-13 15:15:00,36.1,28.0,29.66,SSE,166,3.0,-999.0,73,-99.99,,,0.04,weatherlink.com 1.10,2013-02-13 21:15:00,
2013-02-13 15:29:00,36.6,29.0,29.66,South,180,5.0,-999.0,73,-99.99,,,0.04,weatherlink.com 1.10,2013-02-13 21:29:00,
2013-02-13 15:44:00,36.9,29.0,29.65,South,170,4.0,-999.0,73,-99.99,,,0.04,weatherlink.com 1.10,2013-02-13 21:44:00,
2013-02-13 15:58:00,37.2,29.0,29.65,South,186,2.0,-999.0,73,-99.99,,,0.05,weatherlink.com 1.10,2013-02-13 21:58:00,
2013-02-13 16:12:00,37.0,29.0,29.66,SSW,193,3.0,-999.0,73,-99.99,,,0.05,weatherlink.com 1.10,2013-02-13 22:12:00,
2013-02-13 16:27:00,36.5,29.0,29.65,South,179,2.0,-999.0,75,-99.99,,,0.05,weatherlink.com 1.10,2013-02-13 22:27:00,
2013-02-13 16:41:00,36.5,29.0,29.65,South,183,3.0,-999.0,75,-99.99,,,0.05,weatherlink.com 1.10,2013-02-13 22:41:00,
2013-02-13 16:55:00,36.4,29.0,29.64,South,183,0.0,-999.0,75,-99.99,,,0.05,weatherlink.com 1.10,2013-02-13 22:55:00,
2013-02-13 17:10:00,36.3,29.0,29.63,South,183,0.0,-999.0,76,-99.99,,,0.06,weatherlink.com 1.10,2013-02-13 23:10:00,
2013-02-13 17:24:00,36.2,29.0,29.63,SE,129,2.0,-999.0,76,-99.99,,,0.06,weatherlink.com 1.10,2013-02-13 23:24:00,
2013-02-13 17:38:00,36.1,30.0,29.63,SE,129,0.0,-999.0,77,-99.99,,,0.06,weatherlink.com 1.10,2013-02-13 23:38:00,
2013-02-13 17:52:00,35.9,30.0,29.63,SE,129,0.0,-999.0,78,-99.99,,,0.06,weatherlink.com 1.10,2013-02-13 23:52:00,
2013-02-13 18:07:00,35.8,30.0,29.62,SE,129,0.0,-999.0,79,-99.99,,,0.06,weatherlink.com 1.10,2013-02-14 00:07:00,
2013-02-13 18:21:00,35.5,30.0,29.62,SE,125,1.0,-999.0,79,-99.99,,,0.06,weatherlink.com 1.10,2013-02-14 00:21:00,
2013-02-13 18:36:00,35.4,30.0,29.62,ESE,117,0.0,-999.0,80,-99.99,,,0.06,weatherlink.com 1.10,2013-02-14 00:36:00,
2013-02-13 18:50:00,35.2,30.0,29.63,ESE,116,1.0,-999.0,82,-99.99,,,0.06,weatherlink.com 1.10,2013-02-14 00:50:00,
2013-02-13 19:04:00,35.0,30.0,29.62,ESE,117,0.0,-999.0,83,-99.99,,,0.06,weatherlink.com 1.10,2013-02-14 01:04:00,
2013-02-13 19:18:00,34.4,30.0,29.61,ESE,117,1.0,-999.0,84,-99.99,,,0.06,weatherlink.com 1.10,2013-02-14 01:18:00,
2013-02-13 19:33:00,34.1,30.0,29.61,ESE,117,2.0,-999.0,85,-99.99,,,0.06,weatherlink.com 1.10,2013-02-14 01:33:00,
2013-02-13 19:47:00,33.7,30.0,29.60,ESE,117,0.0,-999.0,86,-99.99,,,0.06,weatherlink.com 1.10,2013-02-14 01:47:00,
2013-02-13 20:01:00,33.5,30.0,29.60,ESE,117,0.0,-999.0,87,-99.99,,,0.06,weatherlink.com 1.10,2013-02-14 02:01:00,
2013-02-13 20:16:00,33.4,30.0,29.59,ESE,116,0.0,-999.0,88,-99.99,,,0.06,weatherlink.com 1.10,2013-02-14 02:16:00,
2013-02-13 20:30:00,33.3,30.0,29.59,ESE,116,0.0,-999.0,88,-99.99,,,0.06,weatherlink.com 1.10,2013-02-14 02:30:00,
2013-02-13 20:44:00,33.2,30.0,29.59,ESE,116,0.0,-999.0,88,-99.99,,,0.06,weatherlink.com 1.10,2013-02-14 02:44:00,
2013-02-13 20:58:00,33.2,30.0,29.58,ESE,117,0.0,-999.0,88,-99.99,,,0.06,weatherlink.com 1.10,2013-02-14 02:58:00,
2013-02-13 21:13:00,33.1,30.0,29.58,ESE,116,0.0,-999.0,89,-99.99,,,0.06,weatherlink.com 1.10,2013-02-14 03:13:00,
2013-02-13 21:27:00,33.1,30.0,29.58,ESE,116,0.0,-999.0,89,-99.99,,,0.06,weatherlink.com 1.10,2013-02-14 03:27:00,
2013-02-13 21:41:00,33.0,30.0,29.58,ESE,117,0.0,-999.0,89,-99.99,,,0.06,weatherlink.com 1.10,2013-02-14 03:41:00,
2013-02-13 21:56:00,33.0,30.0,29.58,ESE,119,0.0,-999.0,89,-99.99,,,0.06,weatherlink.com 1.10,2013-02-14 03:56:00,
2013-02-13 22:10:00,33.1,30.0,29.57,ESE,119,0.0,-999.0,89,-99.99,,,0.06,weatherlink.com 1.10,2013-02-14 04:10:00,
2013-02-13 22:38:00,33.0,30.0,29.57,ESE,119,1.0,-999.0,90,-99.99,,,0.06,weatherlink.com 1.10,2013-02-14 04:38:00,
2013-02-13 23:07:00,33.0,30.0,29.57,WNW,283,2.0,-999.0,90,-99.99,,,0.06,weatherlink.com 1.10,2013-02-14 05:07:00,
2013-02-13 23:21:00,33.0,30.0,29.58,WNW,286,4.0,-999.0,90,-99.99,,,0.06,weatherlink.com 1.10,2013-02-14 05:21:00,
2013-02-13 23:36:00,32.9,30.0,29.58,NW,317,3.0,-999.0,90,-99.99,,,0.06,weatherlink.com 1.10,2013-02-14 05:36:00,
2013-02-13 23:50:00,32.8,30.0,29.59,NNW,331,2.0,-999.0,91,-99.99,,,0.06,weatherlink.com 1.10,2013-02-14 05:50:00,